Regional Weather Roundup
Issued by NWS

Home | Current Version | Previous Version | Text Only | Print | Product List | Glossary Off
Versions: 1 2 3 4 5 6 7 8 9 10 11 12 13 14 15 16 17 18 19 20 21 22 23 24 25 26 27 28 29 30 31 32 33 34 35 36 37 38 39 40 41 42 43 44 45 46 47 48 49 50

946
ASUS43 KLSX 270410
RWRMO

WEATHER SUMMARY FOR MISSOURI
NATIONAL WEATHER SERVICE SPRINGFIELD MO
1100 PM CDT FRI AUG 26 2016

NOTE: "FAIR" INDICATES FEW OR NO CLOUDS BELOW 12,000 FEET WITH NO
       SIGNIFICANT WEATHER AND/OR OBSTRUCTIONS TO VISIBILITY.
       CURRENT SKY AND/OR WEATHER CONDITIONS ARE NOT AVAILABLE FOR
       CHILLICOTHE AND FARMINGTON.

MOZ001>031-035>038-043-044-053-054-270500-
...NORTHERN AND WESTERN MISSOURI...

CITY           SKY/WX    TMP DP  RH WIND       PRES   REMARKS
KANSAS CTY INT CLOUDY    69  67  93 S6        30.04S
KANSAS C DTWN  RAIN      72  69  90 S7        30.04R
LEE`S SUMMIT   CLOUDY    71  67  87 N3        30.06S
ST JOSEPH      CLOUDY    69  68  96 CALM      30.03F FOG
CHILLICOTHE      N/A     70  68  93 S10G18    30.03S
KIRKSVILLE     CLOUDY    72  70  93 NE5       30.05F

$$
MOZ066>068-077>081-088>096-101>105-270500-
...SOUTHWEST MISSOURI...

CITY           SKY/WX    TMP DP  RH WIND       PRES   REMARKS
SPRINGFIELD    PTCLDY    76  71  85 S6        30.05R
JOPLIN         PTCLDY    72  69  90 SE5       30.04R
BRANSON        MOCLDY    75  72  88 CALM      30.07S

$$
MOZ032>034-039>042-045>050-055>058-069>072-270500-
...CENTRAL MISSOURI...

CITY           SKY/WX    TMP DP  RH WIND       PRES   REMARKS
COLUMBIA       CLOUDY    76  73  91 SE7       30.03F
JEFFERSON CITY CLOUDY    74  71  91 E3        30.02F
ROLLA          CLOUDY    74  71  91 SE10      30.03F
SEDALIA        MOCLDY    74  72  93 W6        30.05F
WHITEMAN AFB   CLOUDY    73  73 100 SW3       30.04F
OSAGE BEACH    CLOUDY    72  70  93 CALM      30.05R

$$
MOZ051-052-059>065-270500-
...EAST CENTRAL MISSOURI...

CITY           SKY/WX    TMP DP  RH WIND       PRES   REMARKS
ST LOUIS INTL  MOCLDY    82  71  69 S9        30.05S
SPIRIT OF STL  CLOUDY    79  73  82 S5        30.03F
ST CHARLES     CLOUDY    73  72  96 E3        30.03F

$$
MOZ072>076-082>087-097>100-106>115-270500-
...SOUTH CENTRAL AND SOUTHEAST MISSOURI...

CITY           SKY/WX    TMP DP  RH WIND       PRES   REMARKS
CAPE GIRARDEAU CLOUDY    74  72  93 SE8       30.08R
FARMINGTON     MOCLDY    74  69  85 SW3       30.08F
POPLAR BLUFF   CLOUDY    73  71  93 CALM      30.04F
WEST PLAINS    CLOUDY    74  68  81 VRB3      30.10F

$$




USA.gov is the U.S. government's official web portal to all federal, state and local government web resources and services.